EN

Hourly Weather Yablunivka

Today, 30 November, Monday

Time Temperature Precipitation Wind Pressure Humidity
00:00 -2°C° 0 mm 1 mps 735 mmHg 89%
01:00 -2°C° 0 mm 1 mps 736 mmHg 91%
02:00 -2°C° 0 mm 1 mps 736 mmHg 93%
03:00 -2°C° 0 mm 1 mps 736 mmHg 93%
04:00 -2°C° 0 mm 1 mps 736 mmHg 93%
05:00 -2°C° 0 mm 1 mps 736 mmHg 93%
06:00 -2°C° 0 mm 1 mps 737 mmHg 93%
07:00 -2°C° 0 mm 1 mps 737 mmHg 93%
08:00 -2°C° 0 mm 1 mps 737 mmHg 94%
09:00 -1°C° 0 mm 1 mps 738 mmHg 88%
10:00 0°C° 0 mm 1 mps 738 mmHg 82%
11:00 +1°C° 0 mm 1 mps 738 mmHg 77%
12:00 -1°C° 0 mm 2 mps 738 mmHg 74%
13:00 -1°C° 0 mm 2 mps 738 mmHg 71%
14:00 +1°C° 0 mm 2 mps 738 mmHg 68%
15:00 -1°C° 0 mm 2 mps 738 mmHg 74%
16:00 -2°C° 0 mm 2 mps 738 mmHg 79%
17:00 -2°C° 0 mm 1 mps 738 mmHg 85%
18:00 -2°C° 0 mm 1 mps 738 mmHg 86%
19:00 -2°C° 0 mm 1 mps 738 mmHg 86%
20:00 -2°C° 0 mm 1 mps 739 mmHg 87%
21:00 -3°C° 0 mm 1 mps 739 mmHg 87%
22:00 -3°C° 0 mm 1 mps 739 mmHg 87%
23:00 -3°C° 0 mm 1 mps 739 mmHg 87%

Tomorrow, 1 December, Tuesday

Time Temperature Precipitation Wind Pressure Humidity
00:00 -3°C° 0 mm 1 mps 739 mmHg 88%
01:00 -3°C° 0 mm 1 mps 739 mmHg 89%
02:00 -5°C° 0 mm 2 mps 739 mmHg 90%
03:00 -5°C° 0 mm 2 mps 739 mmHg 91%
04:00 -5°C° 0 mm 2 mps 739 mmHg 92%
05:00 -5°C° 0 mm 2 mps 739 mmHg 93%
06:00 -6°C° 0 mm 2 mps 739 mmHg 93%
07:00 -6°C° 0 mm 2 mps 739 mmHg 94%
08:00 -6°C° 0 mm 2 mps 739 mmHg 94%
09:00 -5°C° 0 mm 2 mps 739 mmHg 87%
10:00 -5°C° 0 mm 3 mps 739 mmHg 80%
11:00 -2°C° 0 mm 3 mps 739 mmHg 73%
12:00 -2°C° 0 mm 3 mps 739 mmHg 70%
13:00 -1°C° 0 mm 3 mps 739 mmHg 67%
14:00 -1°C° 0 mm 3 mps 739 mmHg 64%
15:00 -2°C° 0 mm 3 mps 738 mmHg 70%
16:00 -4°C° 0 mm 3 mps 738 mmHg 76%
17:00 -5°C° 0 mm 3 mps 738 mmHg 82%
18:00 -5°C° 0 mm 3 mps 738 mmHg 84%
19:00 -5°C° 0 mm 3 mps 738 mmHg 87%
20:00 -5°C° 0 mm 3 mps 739 mmHg 89%
21:00 -5°C° 0 mm 3 mps 738 mmHg 90%
22:00 -4°C° 0 mm 3 mps 738 mmHg 92%
23:00 -4°C° 0 mm 3 mps 738 mmHg 93%

Day after tomorrow, 2 December, Wednesday

Time Temperature Precipitation Wind Pressure Humidity
00:00 -4°C° 0 mm 3 mps 738 mmHg 94%
01:00 -2°C° 0 mm 3 mps 738 mmHg 94%
02:00 -2°C° 0 mm 3 mps 738 mmHg 95%
03:00 -2°C° 0.1 mm 3 mps 738 mmHg 96%
04:00 -2°C° 0.1 mm 3 mps 738 mmHg 96%
05:00 -2°C° 0.1 mm 2 mps 738 mmHg 97%
06:00 -2°C° 0.1 mm 2 mps 738 mmHg 97%
07:00 -3°C° 0.1 mm 2 mps 738 mmHg 97%
08:00 -3°C° 0.1 mm 2 mps 737 mmHg 97%
09:00 -2°C° 0 mm 2 mps 738 mmHg 94%
10:00 -2°C° 0 mm 2 mps 738 mmHg 91%
11:00 -1°C° 0 mm 2 mps 738 mmHg 87%
12:00 -1°C° 0 mm 2 mps 737 mmHg 86%
13:00 -1°C° 0 mm 2 mps 737 mmHg 85%
14:00 -1°C° 0 mm 2 mps 737 mmHg 84%
15:00 -1°C° 0 mm 2 mps 737 mmHg 87%
16:00 -1°C° 0 mm 2 mps 737 mmHg 90%
17:00 -2°C° 0 mm 2 mps 736 mmHg 93%
18:00 -2°C° 0 mm 2 mps 736 mmHg 94%
19:00 -2°C° 0 mm 2 mps 736 mmHg 94%
20:00 -2°C° 0 mm 2 mps 737 mmHg 95%
21:00 -2°C° 0 mm 2 mps 736 mmHg 95%
22:00 -2°C° 0 mm 2 mps 736 mmHg 95%
23:00 -3°C° 0 mm 2 mps 736 mmHg 95%

3 December, Thursday

Time Temperature Precipitation Wind Pressure Humidity
00:00 -3°C° 0 mm 2 mps 736 mmHg 96%
01:00 -3°C° 0 mm 2 mps 736 mmHg 96%
02:00 -3°C° 0 mm 2 mps 736 mmHg 97%
03:00 -3°C° 0 mm 2 mps 736 mmHg 97%
04:00 -3°C° 0 mm 2 mps 735 mmHg 96%
05:00 -3°C° 0 mm 2 mps 735 mmHg 96%
06:00 -3°C° 0 mm 2 mps 735 mmHg 96%
07:00 -3°C° 0 mm 2 mps 735 mmHg 95%
08:00 -3°C° 0 mm 2 mps 735 mmHg 95%
09:00 -4°C° 0 mm 3 mps 735 mmHg 91%
10:00 -2°C° 0 mm 3 mps 735 mmHg 88%
11:00 -3°C° 0 mm 4 mps 735 mmHg 84%
12:00 -2°C° 0 mm 4 mps 735 mmHg 83%
13:00 -2°C° 0 mm 4 mps 735 mmHg 82%
14:00 -2°C° 0 mm 4 mps 734 mmHg 81%
15:00 -2°C° 0 mm 4 mps 734 mmHg 81%
16:00 -2°C° 0 mm 4 mps 734 mmHg 81%
17:00 -2°C° 0 mm 4 mps 734 mmHg 81%
18:00 -2°C° 0 mm 5 mps 734 mmHg 81%
19:00 -2°C° 0 mm 5 mps 734 mmHg 81%
20:00 -2°C° 0 mm 5 mps 734 mmHg 81%
21:00 -2°C° 0 mm 5 mps 734 mmHg 82%
22:00 -2°C° 0 mm 5 mps 734 mmHg 84%
23:00 -2°C° 0 mm 4 mps 733 mmHg 86%

4 December, Friday

Time Temperature Precipitation Wind Pressure Humidity
00:00 -2°C° 0 mm 5 mps 733 mmHg 87%
01:00 -1°C° 0 mm 5 mps 733 mmHg 89%
02:00 -1°C° 0 mm 5 mps 732 mmHg 91%
03:00 -1°C° 0 mm 6 mps 732 mmHg 91%
04:00 -1°C° 0 mm 6 mps 732 mmHg 92%
05:00 0°C° 0 mm 7 mps 732 mmHg 92%
06:00 0°C° 0 mm 7 mps 732 mmHg 92%
07:00 0°C° 0 mm 7 mps 731 mmHg 91%
08:00 0°C° 0 mm 8 mps 731 mmHg 91%
09:00 +1°C° 0 mm 8 mps 731 mmHg 86%
10:00 +1°C° 0 mm 8 mps 731 mmHg 81%
11:00 +1°C° 0 mm 9 mps 731 mmHg 76%
12:00 +2°C° 0 mm 9 mps 731 mmHg 74%
13:00 +2°C° 0 mm 9 mps 731 mmHg 72%
14:00 +2°C° 0 mm 8 mps 730 mmHg 70%
15:00 +2°C° 0 mm 8 mps 730 mmHg 74%
16:00 +1°C° 0 mm 8 mps 730 mmHg 78%
17:00 0°C° 0 mm 8 mps 730 mmHg 82%
18:00 0°C° 0 mm 8 mps 730 mmHg 85%
19:00 0°C° 0 mm 8 mps 730 mmHg 87%
20:00 0°C° 0 mm 8 mps 730 mmHg 90%
21:00 0°C° 0 mm 8 mps 730 mmHg 90%
22:00 0°C° 0 mm 8 mps 730 mmHg 90%
23:00 +2°C° 0 mm 7 mps 730 mmHg 90%

5 December, Saturday

Time Temperature Precipitation Wind Pressure Humidity
00:00 +2°C° 0 mm 7 mps 730 mmHg 90%
01:00 +2°C° 0 mm 7 mps 730 mmHg 90%
02:00 +2°C° 0 mm 7 mps 730 mmHg 90%
03:00 +2°C° 0.2 mm 7 mps 730 mmHg 91%
04:00 +2°C° 0.2 mm 7 mps 730 mmHg 92%
05:00 +2°C° 0.2 mm 7 mps 730 mmHg 94%
06:00 +3°C° 0.4 mm 7 mps 730 mmHg 94%
07:00 +3°C° 0.4 mm 7 mps 730 mmHg 94%
08:00 +3°C° 0.4 mm 7 mps 730 mmHg 94%
09:00 +3°C° 0 mm 7 mps 730 mmHg 93%
10:00 +4°C° 0 mm 7 mps 730 mmHg 91%
11:00 +4°C° 0 mm 7 mps 731 mmHg 90%
12:00 +4°C° 0 mm 7 mps 730 mmHg 90%
13:00 +4°C° 0 mm 8 mps 730 mmHg 89%
14:00 +4°C° 0 mm 8 mps 730 mmHg 89%
15:00 +4°C° 0 mm 8 mps 730 mmHg 89%
16:00 +4°C° 0 mm 8 mps 730 mmHg 88%
17:00 +4°C° 0 mm 8 mps 730 mmHg 88%
18:00 +4°C° 0 mm 8 mps 730 mmHg 87%
19:00 +3°C° 0 mm 9 mps 730 mmHg 86%
20:00 +3°C° 0 mm 9 mps 730 mmHg 85%
21:00 +3°C° 0 mm 9 mps 730 mmHg 85%
22:00 +2°C° 0 mm 9 mps 730 mmHg 86%
23:00 +2°C° 0 mm 9 mps 730 mmHg 86%
Show more

We Need Your Consent

Meteoprog and our Service Providers may store and access personal data such as cookies, device identifiers or other similar technologies on your device and process such data to personalise content and ads, as well as provide social media features and to analyse the traffic.

  • Store and/or access information on your device

    Cookies, device identifiers or other information can be stored or accessed on your device for the purposes indicated above.

  • Personalised ads and content, ad and content measurement, audience insights, and products development

    Ads and content can be personalised based on a profile. More data can be added to better personalise ads and content. Ad and content performance can be measured. Insights about the audience who saw the ads and content can be derived. Such data can be used to develop or improve user’s experience, systems and software.

By clicking ‘I Agree’ you will allow the use of indicated cookies, device identifiers, web beacons or other similar technologies. Your settings can be changed in the browser on your device.

For certain purposes, legitimate interests may be relied on, rather than consent. You can read more about this in our Privacy and Cookie Policy.